Location: ??
(34.7252°N, 135.5457°E)
Time: 09:50:27
(UTC+00:00)

Cosmos 1733 Rocket - Pass Details

Date: 24 September 2020
Orbit: 602 x 629 km, 82.5° (Epoch: 23 October)

Event Time Altitude Azimuth Distance (km) Brightness Sun altitude
Rises 19:39:19 0° 344° (NNW) 2,868 6.4 -14.9°
Reaches altitude 10° 19:41:37 10° 338° (NNW) 1,957 5.5 -14.4°
Maximum altitude 19:45:40 41° 268° (W) 882 3.4 -13.6°
Drops below altitude 10° 19:49:42 10° 198° (SSW) 1,938 5.3 -12.8°
Sets 19:51:59 0° 191° (S) 2,836 6.3 -12.3°
